Regional Weather Roundup
Issued by NWS Goodland, KS

Home | Current Version | Previous Version | Graphics & Text | Print | Product List | Glossary On
Versions: 1 2 3 4 5 6 7 8 9 10 11 12 13 14 15 16 17 18 19 20 21 22 23 24 25 26 27 28 29 30 31 32 33 34 35 36 37 38 39 40 41 42 43 44 45 46 47 48 49 50
000
ASUS43 KGLD 222159
RWRGLD

GOODLAND FORECAST AREA HOURLY WEATHER ROUNDUP
NATIONAL WEATHER SERVICE GOODLAND KS
300 PM MST THU FEB 22 2018

...OFFICIAL OBSERVATIONS...

CITY           SKY/WX    TMP DP  RH WIND       PRES   REMARKS
GOODLAND KS    SUNNY     31  18  58 SE7       29.98F
HILL CITY KS   CLOUDY    27  24  89 SE6       30.13S FOG
IMPERIAL NEB   CLOUDY    24  18  77 SE10      30.04F WCI  14
MCCOOK NEB     CLOUDY    23  21  92 SE6       30.10F FOG
AKRON CO       CLOUDY    29  18  63 N7        29.93R
BURLINGTON CO  SUNNY     35  21  56 S6        29.95F
LIMON CO       SUNNY     36  15  42 SE9       29.88F
$$

...UNOFFICIAL OBSERVATIONS...

CITY           SKY/WX    TMP DP  RH WIND       PRES   REMARKS
NORTON KS      CLOUDY    25  21  86 SE5       30.11
SHARON SPRINGS   N/A     40  20  45 SE6G18      N/A
KIT CARSON CO    N/A     40  20  44 CALM        N/A
YUMA CO        CLOUDY    32  14  47 SE7       29.96R
$$



USA.gov is the U.S. government's official web portal to all federal, state and local government web resources and services.